Location: Newark
(21.1200°N, 73.4000°E)
Time: 18:41:39
(UTC+00:00)

Explorer 11/Cluster Stage 4 - Pass Details

Date: 21 January 2020
Orbit: 467 x 1259 km, 28.8° (Epoch: 26 February)

Event Time Altitude Azimuth Distance (km) Brightness Sun altitude
Rises 10:56:26 0° 263° (W) 4,123 11.3 22.5°
Reaches altitude 10° 10:59:33 10° 267° (W) 3,090 10.8 21.9°
Maximum altitude 11:07:06 58° 345° (NNW) 1,205 7.7 20.5°
Drops below altitude 10° 11:13:21 10° 64° (ENE) 2,570 8.7 19.2°
Sets 11:15:44 0° 68° (ENE) 3,390 9.2 18.8°
